weather.gov     
National Weather Service

Terminal Aerodrome Forecast
NWS Homepage
This page is being discontinued on March 12, 2014.
The same data is available at this site. Please update your bookmarks.
Thank you, and we apologize for the inconvenience.
Please send an email to SR-SRH.Webmaster@noaa.gov with any concerns.


Current Version
Previous Version:    01  02  03  04  05  06  07  08  09  10  11  12  13  14  
[Printable]
408
FTUS41 KCAR 182300
TAFPQI
TAF
KPQI 182321Z 1900/1924 15005KT P6SM BKN120 OVC200
     FM190700 19003KT P6SM -SHSN SCT025 OVC050
     FM190900 19003KT 3SM -SHSN OVC025
     FM191600 32008G15KT 5SM -SHSN OVC025
     FM191800 32015G25KT P6SM VCSH BKN025 OVC040
      AMD LTD TO CLD VIS AND WIND=


U.S. Dept. of Commerce
NOAA National Weather Service
1325 East West Highway
Silver Spring, MD 20910
E-mail: w-nws.webmaster@noaa.gov
Page last modified: May 16, 2007
NATIONAL WEATHER SERVICE: for Safety, for Work, for Fun - FOR LIFE